[[{"header":{"parameterUnit":"m.s-1","parameterCategory":2,"la1":30.2991,"la2":30.254,"lo1":-89.0895,"lo2":-89.0444,"dy":0.0017,"dx":0.0017,"nx":28,"ny":28,"refTime":"2024-05-09T03:00:00:Z","depth":"0","parameterNumber":2,"parameterNumberName":"U-component_of_CURRENTS"},"data":[0,0,0,0,0,0,0,0,0,0,0,0,0,0,0,0,0,0,0,0,0,0,0,0,0,0,0,0,0,0,0,0,0,0,0,0,0,0,0,0,0,0,0,0,0,0,0,0,0,0,0,0,0,0,0,0,0,0,0.464,0.4643,0,0.4846,0.4848,0.485,0.4886,0.4885,0.4884,0.4883,0.491,0.4912,0.4914,0,0,0,0,0,0,0,0,0,0,0,0,0,0.4427,0.4429,0.464,0.4643,0.4646,0.4846,0.4848,0.485,0.4887,0.4885,0.4884,0.4882,0.4909,0.4912,0.4914,0,0,0,0,0,0,0,0,0,0,0,0,0,0.4559,0.443,0.4639,0.4692,0.4699,0.4845,0.4848,0.4851,0.4887,0.4885,0.4883,0.4881,0.4909,0.4911,0.4914,0.4969,0,0,0.4923,0.4924,0,0,0,0,0,0,0,0,0.4552,0.4566,0.4681,0.4689,0.4697,0.4843,0.4784,0.4883,0.4887,0.481,0.4883,0.488,0.4876,0.4881,0.4919,0.497,0.4971,0.4923,0.4925,0.4926,0.4927,0,0,0,0,0,0,0,0.4542,0.4559,0.4716,0.4685,0.4694,0.4757,0.4772,0.4804,0.4843,0.4817,0.4821,0.4853,0.4878,0.4917,0.492,0.4972,0.4923,0.4926,0.4927,0.4928,0.5126,0.513,0,0,0,0,0,0,0.4522,0.455,0.471,0.4723,0.4624,0.4762,0.4779,0.4794,0.4847,0.4857,0.4854,0.4854,0.4913,0.4916,0.4921,0.5029,0.4926,0.4929,0.493,0.5123,0.5127,0.5131,0,0,0,0,0,0,0.4516,0.4534,0.4701,0.4646,0.4672,0.4767,0.4785,0.4799,0.4844,0.4879,0.4883,0.4885,0.4911,0.4917,0.4961,0.5028,0.493,0.4933,0.5119,0.5124,0.5129,0.5218,0,0,0,0,0,0,0.4509,0.453,0.4539,0.4644,0.4675,0.4815,0.4788,0.4805,0.4869,0.487,0.4907,0.4907,0.491,0.4957,0.4963,0.503,0.4935,0.5114,0.5121,0.5127,0.5211,0.5226,0.5239,0,0,0,0,0,0.45,0.452,0.4538,0.4559,0.4682,0.4819,0.4841,0.4898,0.4872,0.4923,0.4926,0.4906,0.5005,0.4961,0.4968,0.5037,0.5111,0.5119,0.5127,0.5205,0.5223,0.5239,0,0,0,0,0,0,0.4413,0.453,0.455,0.4597,0.4713,0.4827,0.4876,0.4907,0.4956,0.494,0.494,0.4944,0.5008,0.5016,0.4968,0.5119,0.5061,0.5071,0.5118,0.5135,0.5149,0.5169,0.4937,0,0,0,0,0,0.4405,0.446,0.4581,0.4625,0.4679,0.4776,0.4834,0.4884,0.4944,0.4964,0.4995,0.5021,0.5054,0.5082,0.5115,0.5195,0.5209,0.5251,0.5265,0.5276,0.5302,0.5354,0.5374,0.5157,0.5157,0.5157,0,0,0.4383,0.4456,0.4485,0.4615,0.4696,0.4809,0.4805,0.4911,0.5002,0.4957,0.5064,0.5064,0.5082,0.5169,0.5202,0.5181,0.5355,0.5287,0.5296,0.5316,0.5364,0.5385,0.5404,0.5163,0.5162,0.5161,0,0,0.4394,0.4436,0.45,0.4607,0.4751,0.4832,0.4864,0.4998,0.5052,0.5161,0.5137,0.5176,0.5258,0.5286,0.5303,0.5419,0.5415,0.544,0.5543,0.5593,0.561,0.5626,0.57,0.5721,0.5462,0.5462,0.5462,0,0.4356,0.4458,0.4544,0.465,0.4744,0.4841,0.495,0.5041,0.5174,0.5212,0.5209,0.5311,0.5321,0.54,0.5454,0.5451,0.5486,0.5467,0.5609,0.5624,0.5638,0.571,0.5732,0.5467,0.5467,0.5466,0.5466,0,0.4442,0.4529,0.4581,0.4748,0.4862,0.4975,0.5122,0.5215,0.5279,0.5353,0.5451,0.548,0.5532,0.5559,0.5548,0.5663,0.5659,0.5602,0.5556,0.5665,0.5735,0.5757,0.5475,0.5473,0.5471,0.547,0,0,0.433,0.4587,0.4604,0.4708,0.4924,0.5028,0.518,0.534,0.5407,0.5534,0.5625,0.5708,0.5701,0.5724,0.5717,0.5788,0.5926,0.5762,0.5762,0.5822,0.6072,0.597,0.5983,0.5891,0.5894,0.5897,0.6089,0,0.4369,0.4572,0.4696,0.4894,0.5019,0.516,0.5292,0.5439,0.5542,0.5655,0.571,0.5783,0.5773,0.5789,0.5866,0.5882,0.5985,0.5882,0.5972,0.5976,0.5857,0.6004,0.572,0.5858,0.611,0.6113,0.6116,0,0.4416,0.4552,0.4743,0.4985,0.5045,0.5164,0.5366,0.5497,0.5656,0.5729,0.5818,0.5855,0.5971,0.594,0.6088,0.6023,0.6085,0.6117,0.6122,0.601,0.5912,0.5787,0.5887,0.5797,0.6149,0.6146,0.6144,0,0.4336,0.4587,0.4737,0.4828,0.5099,0.5183,0.5315,0.5492,0.5594,0.5758,0.5829,0.5954,0.6026,0.6112,0.6214,0.6152,0.639,0.6283,0.6272,0.6265,0.6034,0.5999,0.6038,0.6436,0.6436,0.6435,0.6434,0,0.4352,0.4472,0.4703,0.479,0.4942,0.5137,0.5278,0.5416,0.5588,0.5695,0.5837,0.5939,0.6078,0.6222,0.6279,0.6367,0.6444,0.6338,0.6318,0.606,0.6028,0.5942,0.5896,0.6442,0.6441,0.6439,0.6438,0,0.4282,0.4431,0.4609,0.4853,0.4918,0.5025,0.5259,0.5353,0.552,0.5667,0.5724,0.5963,0.6124,0.6285,0.6453,0.6439,0.6354,0.6554,0.6266,0.6207,0.5986,0.5954,0.5775,0.5608,0.6504,0.6503,0.6502,0,0.4269,0.4355,0.4605,0.468,0.4791,0.4957,0.5063,0.5287,0.5384,0.5661,0.5719,0.596,0.6088,0.6332,0.6366,0.6472,0.6351,0.6283,0.6086,0.5986,0.5939,0.5723,0.5579,0.5841,0.5834,0.5829,0.5825,0,0.4235,0.4322,0.4461,0.4611,0.4731,0.488,0.5041,0.5108,0.5351,0.5452,0.5624,0.5749,0.6003,0.5981,0.6165,0.6178,0.595,0.6172,0.613,0.5495,0.5199,0.5022,0.5744,0.5778,0.5783,0.5786,0.5789,0.5791,0.4179,0.425,0.441,0.4541,0.4662,0.4771,0.4791,0.4942,0.5041,0.5119,0.5388,0.5442,0.5613,0.5774,0.5791,0.5655,0.5638,0.5485,0.5488,0.5307,0.5021,0.5666,0.5623,0.5626,0.563,0.5632,0.5635,0,0.4102,0.4204,0.4327,0.4453,0.4493,0.4626,0.4734,0.4679,0.4662,0.4834,0.4899,0.4998,0.5016,0.5153,0.517,0.5035,0.4775,0.4932,0.4574,0.4491,0.5132,0.4978,0.4715,0.4715,0.4715,0.4715,0.4715,0.4715,0.407,0.4148,0.4217,0.4241,0.4299,0.4251,0.4252,0.4193,0.4245,0.4194,0.4202,0.4339,0.467,0.4845,0.4769,0.4641,0.4352,0.4118,0.419,0.4685,0.4736,0.4785,0.4632,0.4301,0.43,0.3301,0.3294,0.3289]},{"header":{"parameterUnit":"m.s-1","parameterCategory":2,"la1":30.2991,"la2":30.254,"lo1":-89.0895,"lo2":-89.0444,"dy":0.0017,"dx":0.0017,"nx":28,"ny":28,"refTime":"2024-05-09T03:00:00:Z","depth":"0","parameterNumber":3,"parameterNumberName":"V-component_of_CURRENTS"},"data":[0,0,0,0,0,0,0,0,0,0,0,0,0,0,0,0,0,0,0,0,0,0,0,0,0,0,0,0,0,0,0,0,0,0,0,0,0,0,0,0,0,0,0,0,0,0,0,0,0,0,0,0,0,0,0,0,0,0,-0.03,-0.0301,0,-0.0484,-0.0487,-0.049,-0.0604,-0.0604,-0.0604,-0.0604,-0.0759,-0.0764,-0.0768,0,0,0,0,0,0,0,0,0,0,0,0,0,-0.0189,-0.019,-0.03,-0.0301,-0.0303,-0.0484,-0.0487,-0.049,-0.0604,-0.0604,-0.0604,-0.0604,-0.0758,-0.0763,-0.0768,0,0,0,0,0,0,0,0,0,0,0,0,0,-0.0298,-0.019,-0.0299,-0.0376,-0.0384,-0.0483,-0.0487,-0.0491,-0.0604,-0.0604,-0.0604,-0.0604,-0.0756,-0.0763,-0.0769,-0.081,0,0,-0.0788,-0.0791,0,0,0,0,0,0,0,0,-0.0291,-0.0303,-0.0363,-0.0371,-0.038,-0.0515,-0.0505,-0.0594,-0.0604,-0.0528,-0.0604,-0.0604,-0.067,-0.0684,-0.0729,-0.0817,-0.0824,-0.0789,-0.0792,-0.0795,-0.0797,0,0,0,0,0,0,0,-0.0284,-0.0296,-0.038,-0.0365,-0.0375,-0.045,-0.0465,-0.0524,-0.0603,-0.0535,-0.0542,-0.0551,-0.0676,-0.0723,-0.0734,-0.0826,-0.0788,-0.0794,-0.0798,-0.08,-0.1013,-0.1015,0,0,0,0,0,0,-0.0239,-0.0288,-0.0374,-0.0385,-0.0326,-0.0451,-0.0468,-0.0478,-0.0603,-0.062,-0.0551,-0.0555,-0.0712,-0.0726,-0.0739,-0.0809,-0.0795,-0.0801,-0.0805,-0.1011,-0.1013,-0.1015,0,0,0,0,0,0,-0.0236,-0.0245,-0.0367,-0.0335,-0.0355,-0.0451,-0.0462,-0.0481,-0.0524,-0.0614,-0.0632,-0.0572,-0.0713,-0.073,-0.0791,-0.0814,-0.0804,-0.081,-0.1009,-0.1012,-0.1014,-0.0938,0,0,0,0,0,0,-0.0232,-0.0243,-0.024,-0.0332,-0.0355,-0.0417,-0.0462,-0.0484,-0.0526,-0.0534,-0.0638,-0.0653,-0.0714,-0.0781,-0.0798,-0.0823,-0.0814,-0.1007,-0.101,-0.1014,-0.0938,-0.0938,-0.0937,0,0,0,0,0,-0.0227,-0.0217,-0.0239,-0.0249,-0.0346,-0.0416,-0.0437,-0.051,-0.0527,-0.0548,-0.0616,-0.065,-0.0816,-0.0787,-0.0806,-0.0834,-0.1005,-0.1009,-0.1013,-0.0938,-0.0938,-0.0937,0,0,0,0,0,0,-0.0166,-0.0229,-0.0255,-0.0264,-0.033,-0.0433,-0.045,-0.05,-0.0575,-0.0574,-0.066,-0.0681,-0.0745,-0.0803,-0.0769,-0.0911,-0.0922,-0.093,-0.0859,-0.0859,-0.0859,-0.0793,-0.082,0,0,0,0,0,-0.0147,-0.0158,-0.0235,-0.0243,-0.0265,-0.0355,-0.0392,-0.0441,-0.0514,-0.0548,-0.0624,-0.0707,-0.0782,-0.0825,-0.0897,-0.0964,-0.0956,-0.1003,-0.1002,-0.1001,-0.0965,-0.0994,-0.099,-0.1029,-0.1029,-0.1029,0,0,-0.0125,-0.0159,-0.0166,-0.023,-0.0283,-0.032,-0.0379,-0.0422,-0.0463,-0.0549,-0.0622,-0.0696,-0.0797,-0.0877,-0.0914,-0.0925,-0.0982,-0.1007,-0.1004,-0.0968,-0.0997,-0.0993,-0.0989,-0.1032,-0.1032,-0.1031,0,0,-0.0077,-0.0112,-0.0104,-0.0154,-0.0216,-0.0283,-0.0286,-0.0386,-0.0438,-0.0516,-0.0589,-0.066,-0.0793,-0.0865,-0.0918,-0.0957,-0.097,-0.1007,-0.0959,-0.0989,-0.0984,-0.0979,-0.0926,-0.0918,-0.1017,-0.1017,-0.1017,0,-0.0044,-0.0049,-0.0115,-0.0125,-0.0154,-0.0256,-0.0262,-0.0341,-0.0454,-0.0479,-0.0525,-0.0698,-0.0783,-0.0864,-0.0893,-0.095,-0.0942,-0.0945,-0.0981,-0.0977,-0.0974,-0.0921,-0.0912,-0.1014,-0.1014,-0.1015,-0.1015,0,-0.0002,-0.0009,-0.0006,-0.0055,-0.0101,-0.0124,-0.0225,-0.0277,-0.0351,-0.0426,-0.0513,-0.064,-0.0726,-0.08,-0.0862,-0.0904,-0.0893,-0.0961,-0.0962,-0.0964,-0.0909,-0.0902,-0.1009,-0.101,-0.1011,-0.1012,0,0,0.0083,0.0037,0.0038,0.0036,-0.0062,-0.009,-0.0149,-0.0223,-0.023,-0.0375,-0.0388,-0.0566,-0.0613,-0.0676,-0.0776,-0.0831,-0.0808,-0.0884,-0.0887,-0.0791,-0.0806,-0.0749,-0.0735,-0.0888,-0.0887,-0.0887,-0.076,0,0.0138,0.0157,0.0103,0.0102,0.01,0.0002,-0.004,-0.012,-0.02,-0.0243,-0.0383,-0.0437,-0.0578,-0.06,-0.0682,-0.0775,-0.0792,-0.0831,-0.0851,-0.0849,-0.0768,-0.0727,-0.0703,-0.0585,-0.0752,-0.0751,-0.075,0,0.0196,0.0202,0.023,0.0202,0.0195,0.0175,0.0129,0.0079,-0.0013,-0.0062,-0.0148,-0.0244,-0.0338,-0.0454,-0.0586,-0.0605,-0.0677,-0.0757,-0.0756,-0.0717,-0.0779,-0.0625,-0.0566,-0.084,-0.0739,-0.074,-0.074,0,0.0295,0.0287,0.0322,0.0307,0.0256,0.0264,0.023,0.0151,0.015,0.0084,0.011,-0.0056,-0.0073,-0.0242,-0.041,-0.049,-0.0516,-0.065,-0.065,-0.0644,-0.063,-0.0624,-0.0803,-0.0697,-0.0697,-0.0698,-0.0698,0,0.0367,0.0394,0.0385,0.0402,0.0455,0.0381,0.0426,0.0375,0.0354,0.0415,0.0237,0.0286,-0.0022,-0.0091,-0.0298,-0.0406,-0.0416,-0.0589,-0.0609,-0.0601,-0.0595,-0.084,-0.0992,-0.0693,-0.0694,-0.0695,-0.0696,0,0.0461,0.0449,0.05,0.0498,0.0507,0.0548,0.0566,0.0599,0.058,0.0671,0.0679,0.0577,0.0505,0.0238,0.0025,-0.0192,-0.0472,-0.038,-0.0302,-0.0317,-0.0627,-0.0773,-0.0889,-0.1007,-0.0374,-0.0372,-0.037,0,0.0506,0.0548,0.0596,0.0644,0.0654,0.0704,0.074,0.0713,0.0782,0.0878,0.0961,0.0935,0.0953,0.0678,0.0292,0.0006,-0.0301,-0.0174,-0.0358,-0.0593,-0.0772,-0.0902,-0.1005,-0.0292,-0.0289,-0.0287,-0.0286,0,0.0602,0.063,0.0677,0.0783,0.0847,0.0916,0.0993,0.1089,0.1121,0.1254,0.1446,0.1488,0.1245,0.0952,0.0534,0.0293,-0.0368,-0.0143,-0.0441,-0.074,-0.0838,-0.0976,-0.0379,-0.0269,-0.0271,-0.0272,-0.0273,-0.0274,0.0684,0.0748,0.0826,0.0928,0.1014,0.1146,0.1247,0.1376,0.1567,0.1809,0.1839,0.1991,0.1509,0.0941,0.0556,-0.0155,-0.0208,-0.0433,-0.0581,-0.0684,-0.0842,-0.015,-0.0051,-0.0051,-0.0052,-0.0052,-0.0052,0,0.078,0.0854,0.0958,0.1095,0.1228,0.1237,0.1427,0.1564,0.1856,0.2103,0.2312,0.2239,0.1634,0.096,0.0009,-0.0536,-0.0792,-0.0844,-0.109,-0.1174,-0.0598,-0.0646,-0.0606,-0.0605,-0.0605,-0.0605,-0.0605,-0.0604,0.0837,0.096,0.1017,0.1263,0.137,0.1561,0.1689,0.1917,0.2134,0.2484,0.2644,0.2724,0.2229,0.0465,-0.0785,-0.1076,-0.1509,-0.1552,-0.1783,-0.1482,-0.1459,-0.1437,-0.1524,-0.1668,-0.1669,-0.2327,-0.2334,-0.2339]}],[{"header":{"parameterUnit":"m.s-1","parameterCategory":2,"la1":30.2991,"la2":30.254,"lo1":-89.0895,"lo2":-89.0444,"dy":0.0017,"dx":0.0017,"nx":28,"ny":28,"refTime":"2024-05-09T03:00:00:Z","depth":"2","parameterNumber":2,"parameterNumberName":"U-component_of_CURRENTS"},"data":[0,0,0,0,0,0,0,0,0,0,0,0,0,0,0,0,0,0,0,0,0,0,0,0,0,0,0,0,0,0,0,0,0,0,0,0,0,0,0,0,0,0,0,0,0,0,0,0,0,0,0,0,0,0,0,0,0,0,0.3383,0.3384,0,0.3382,0.3382,0.3381,0.3363,0.3363,0.3364,0.3364,0.3425,0.3426,0.3427,0,0,0,0,0,0,0,0,0,0,0,0,0,0.327,0.3272,0.3383,0.3384,0.3384,0.3383,0.3382,0.3381,0.3363,0.3363,0.3364,0.3364,0.3424,0.3426,0.3427,0,0,0,0,0,0,0,0,0,0,0,0,0,0.3291,0.3273,0.3383,0.3382,0.3383,0.3383,0.3382,0.3381,0.3363,0.3363,0.3364,0.3364,0.3424,0.3426,0.3427,0.3428,0,0,0.3433,0.3434,0,0,0,0,0,0,0,0,0.329,0.3294,0.3381,0.3382,0.3383,0.3381,0.3365,0.3403,0.3363,0.3361,0.3364,0.3365,0.3422,0.3424,0.3408,0.3431,0.3433,0.3433,0.3434,0.3435,0.3436,0,0,0,0,0,0,0,0.3289,0.3293,0.3373,0.3382,0.3383,0.3349,0.3352,0.337,0.3382,0.3361,0.3362,0.3376,0.3421,0.3406,0.341,0.3434,0.3433,0.3435,0.3436,0.3437,0.3552,0.3554,0,0,0,0,0,0,0.3312,0.3293,0.3373,0.3374,0.3347,0.3352,0.3355,0.3374,0.338,0.3384,0.3376,0.3376,0.3403,0.3408,0.3412,0.3534,0.3435,0.3437,0.3438,0.3551,0.3553,0.3555,0,0,0,0,0,0,0.331,0.3319,0.3374,0.334,0.3346,0.3355,0.3375,0.3374,0.3377,0.3393,0.3396,0.3384,0.3403,0.341,0.3473,0.3532,0.3438,0.344,0.3548,0.3551,0.3554,0.3701,0,0,0,0,0,0,0.3306,0.3318,0.3336,0.3342,0.3349,0.3371,0.3375,0.3374,0.3389,0.3388,0.3401,0.3405,0.3404,0.3471,0.3475,0.3533,0.3441,0.3546,0.355,0.3553,0.3693,0.3708,0.3721,0,0,0,0,0,0.3302,0.3327,0.3337,0.3347,0.3375,0.3372,0.337,0.3372,0.3389,0.3378,0.3427,0.3406,0.3496,0.3475,0.3479,0.3539,0.3544,0.3549,0.3553,0.3687,0.3705,0.3721,0,0,0,0,0,0,0.3286,0.3329,0.334,0.3377,0.3375,0.3372,0.3385,0.3383,0.3406,0.3441,0.344,0.3448,0.3513,0.3504,0.348,0.3578,0.3513,0.3518,0.3613,0.363,0.3644,0.3655,0.3443,0,0,0,0,0,0.3295,0.3321,0.3344,0.3367,0.3384,0.3387,0.3391,0.3402,0.3428,0.3437,0.3461,0.3498,0.3528,0.3565,0.3574,0.3645,0.3651,0.368,0.3694,0.3706,0.3717,0.3758,0.3777,0.3569,0.3569,0.3569,0,0,0.3288,0.3322,0.3332,0.3365,0.3378,0.3407,0.3389,0.3421,0.3446,0.3447,0.3512,0.3538,0.355,0.3624,0.3653,0.3636,0.3781,0.3711,0.3722,0.3726,0.3765,0.3785,0.3803,0.3572,0.3572,0.3571,0,0,0.3301,0.3333,0.3365,0.3372,0.3417,0.3434,0.345,0.3481,0.3495,0.3554,0.3574,0.3654,0.368,0.3732,0.3751,0.3847,0.3833,0.384,0.3951,0.3992,0.401,0.4025,0.4118,0.4141,0.3871,0.3871,0.3871,0,0.3299,0.3342,0.3365,0.34,0.3415,0.3454,0.3484,0.3508,0.3556,0.3588,0.3591,0.3717,0.3733,0.3852,0.3894,0.3883,0.3911,0.3893,0.4013,0.4027,0.4041,0.4131,0.4154,0.3879,0.3878,0.3877,0.3876,0,0.3327,0.3365,0.3388,0.3453,0.3468,0.35,0.3548,0.3603,0.3649,0.3671,0.3784,0.3852,0.3935,0.3956,0.3959,0.4084,0.4078,0.4009,0.3976,0.4071,0.4161,0.4182,0.389,0.3887,0.3885,0.3883,0,0,0.3302,0.3393,0.3395,0.3425,0.3498,0.3511,0.36,0.3662,0.3756,0.3816,0.3917,0.4013,0.4081,0.411,0.4161,0.4221,0.4368,0.4176,0.4174,0.428,0.4508,0.4353,0.4361,0.4316,0.4319,0.4321,0.4554,0,0.3313,0.3377,0.3421,0.3475,0.3511,0.3577,0.3662,0.3734,0.3816,0.3934,0.4019,0.4125,0.4129,0.4224,0.4293,0.4343,0.4421,0.4314,0.4388,0.4392,0.425,0.4378,0.4045,0.4208,0.4574,0.4578,0.458,0,0.3315,0.3359,0.3417,0.351,0.3538,0.3594,0.3743,0.3823,0.399,0.4052,0.4196,0.4263,0.4435,0.438,0.4567,0.4502,0.4522,0.4541,0.4549,0.4359,0.4273,0.4158,0.4232,0.4615,0.4612,0.461,0.4608,0,0.3259,0.3343,0.339,0.3408,0.3544,0.3604,0.3694,0.3864,0.3962,0.4146,0.4239,0.4429,0.4552,0.4615,0.4689,0.4641,0.484,0.4767,0.4659,0.4652,0.4357,0.4315,0.485,0.485,0.4849,0.4849,0.4848,0,0.3236,0.3263,0.3377,0.3395,0.3492,0.3593,0.3761,0.3861,0.4069,0.4179,0.4318,0.4443,0.4601,0.4727,0.4758,0.4804,0.4907,0.4714,0.4697,0.4402,0.4363,0.4675,0.4651,0.4858,0.4856,0.4854,0.4852,0,0.3172,0.3238,0.3298,0.3429,0.3472,0.3547,0.376,0.387,0.4075,0.4234,0.4287,0.4499,0.4642,0.4783,0.4917,0.4886,0.4932,0.4894,0.457,0.4507,0.4717,0.4699,0.4848,0.4844,0.4841,0.4839,0.4837,0,0.3148,0.3179,0.3295,0.3331,0.3391,0.3535,0.3623,0.3833,0.3936,0.4232,0.4257,0.4483,0.4562,0.4759,0.4763,0.4836,0.4881,0.4521,0.433,0.4747,0.4717,0.4703,0.4689,0.4053,0.4044,0.4037,0.4032,0,0.31,0.3154,0.32,0.327,0.3331,0.3437,0.3569,0.3648,0.3886,0.4001,0.4131,0.4233,0.4434,0.4353,0.4457,0.4429,0.4489,0.4377,0.4918,0.4065,0.4003,0.3971,0.3982,0.3971,0.3977,0.3981,0.3985,0.3987,0.3066,0.3079,0.3135,0.3199,0.3256,0.33,0.3327,0.3436,0.3542,0.366,0.3866,0.3896,0.4023,0.3989,0.3904,0.3867,0.4156,0.3978,0.3997,0.4025,0.385,0.3781,0.3682,0.3686,0.369,0.3693,0.3696,0,0.2988,0.3018,0.3055,0.3093,0.3079,0.3178,0.3244,0.3213,0.3203,0.3346,0.3427,0.3241,0.323,0.3349,0.3216,0.3238,0.3196,0.309,0.301,0.3076,0.3134,0.2909,0.2494,0.249,0.2485,0.2481,0,0,0.2946,0.2936,0.2949,0.2905,0.2932,0.2852,0.285,0.2784,0.2829,0.2774,0.2788,0.3063,0.3249,0.281,0.2788,0.2608,0.2801,0.2506,0.3487,0.3458,0.3508,0.3683,0.3417,0,0,0,0,0]},{"header":{"parameterUnit":"m.s-1","parameterCategory":2,"la1":30.2991,"la2":30.254,"lo1":-89.0895,"lo2":-89.0444,"dy":0.0017,"dx":0.0017,"nx":28,"ny":28,"refTime":"2024-05-09T03:00:00:Z","depth":"2","parameterNumber":3,"parameterNumberName":"V-component_of_CURRENTS"},"data":[0,0,0,0,0,0,0,0,0,0,0,0,0,0,0,0,0,0,0,0,0,0,0,0,0,0,0,0,0,0,0,0,0,0,0,0,0,0,0,0,0,0,0,0,0,0,0,0,0,0,0,0,0,0,0,0,0,0,0.0051,0.0051,0,0.0021,0.002,0.002,-0.0029,-0.003,-0.003,-0.0031,-0.0132,-0.0134,-0.0136,0,0,0,0,0,0,0,0,0,0,0,0,0,0.0067,0.0067,0.0051,0.0051,0.0051,0.0021,0.002,0.002,-0.0029,-0.003,-0.003,-0.0031,-0.0131,-0.0134,-0.0136,0,0,0,0,0,0,0,0,0,0,0,0,0,0.0049,0.0067,0.0051,0.0024,0.0022,0.0021,0.002,0.002,-0.0028,-0.003,-0.0031,-0.0032,-0.0131,-0.0134,-0.0137,-0.0133,0,0,-0.0146,-0.0147,0,0,0,0,0,0,0,0,0.005,0.0048,0.0028,0.0026,0.0023,0.0,-0.0011,-0.0034,-0.0028,-0.0011,-0.0031,-0.0032,-0.0092,-0.0099,-0.0103,-0.0138,-0.0142,-0.0146,-0.0148,-0.0149,-0.015,0,0,0,0,0,0,0,0.0051,0.0049,0.0037,0.0028,0.0025,0.0014,0.001,-0.0016,-0.0048,-0.0013,-0.0016,-0.0016,-0.0095,-0.01,-0.0106,-0.0144,-0.0146,-0.0149,-0.0151,-0.0152,-0.0209,-0.0209,0,0,0,0,0,0,0.006,0.0051,0.0038,0.0037,0.0036,0.0015,0.001,0.0007,-0.0046,-0.0054,-0.0015,-0.0018,-0.0095,-0.0103,-0.011,-0.0123,-0.0149,-0.0152,-0.0154,-0.0209,-0.0209,-0.0209,0,0,0,0,0,0,0.006,0.0059,0.004,0.0044,0.0041,0.0016,0.0013,0.0007,0.0003,-0.0047,-0.0057,-0.0014,-0.0096,-0.0106,-0.0138,-0.0127,-0.0153,-0.0156,-0.021,-0.0209,-0.0209,-0.0141,0,0,0,0,0,0,0.0061,0.0059,0.0061,0.0045,0.0041,0.0054,0.0014,0.0008,0.0005,0.0,-0.0049,-0.006,-0.0097,-0.0133,-0.0141,-0.0132,-0.0158,-0.021,-0.0209,-0.0209,-0.0143,-0.0138,-0.0133,0,0,0,0,0,0.0062,0.0075,0.0061,0.006,0.0044,0.0055,0.0053,0.0029,0.0006,0.0018,-0.0031,-0.0058,-0.0135,-0.0135,-0.0144,-0.0136,-0.021,-0.021,-0.0209,-0.0145,-0.0139,-0.0133,0,0,0,0,0,0,0.0084,0.0071,0.0056,0.0064,0.0065,0.0048,0.0055,0.0038,0.0011,-0.0003,-0.0055,-0.0069,-0.0085,-0.0122,-0.0121,-0.0152,-0.0176,-0.0177,-0.0125,-0.0119,-0.0114,-0.0083,-0.0161,0,0,0,0,0,0.009,0.0097,0.0085,0.0094,0.0095,0.0075,0.0075,0.006,0.0036,0.0023,-0.0016,-0.0061,-0.0087,-0.0114,-0.0137,-0.0161,-0.0189,-0.0162,-0.0157,-0.0152,-0.0133,-0.0164,-0.0159,-0.0206,-0.0206,-0.0207,0,0,0.0102,0.0097,0.01,0.01,0.0094,0.0117,0.0073,0.008,0.01,0.0016,0.0017,-0.0035,-0.0085,-0.0105,-0.0118,-0.014,-0.0158,-0.0151,-0.0147,-0.013,-0.0162,-0.0158,-0.0154,-0.0206,-0.0206,-0.0206,0,0,0.0142,0.0125,0.0147,0.0156,0.0155,0.0148,0.0155,0.0138,0.0129,0.0116,0.0066,0.0014,-0.0028,-0.0068,-0.0092,-0.0076,-0.0118,-0.0084,-0.0049,-0.0079,-0.0075,-0.0072,-0.0117,-0.0118,-0.0097,-0.0097,-0.0097,0,0.0156,0.0184,0.0158,0.0189,0.0214,0.0169,0.0216,0.0203,0.0176,0.0176,0.0126,0.0047,-0.0008,-0.0029,-0.0034,-0.0063,-0.0088,-0.0067,-0.0071,-0.0068,-0.0066,-0.0114,-0.0116,-0.0094,-0.0094,-0.0094,-0.0095,0,0.0217,0.0243,0.0262,0.0288,0.031,0.0341,0.0332,0.0327,0.0294,0.0276,0.0242,0.0142,0.0093,0.0058,0.0011,0.0,-0.0026,-0.0048,-0.0082,-0.0057,-0.0109,-0.0113,-0.0089,-0.009,-0.0091,-0.0092,0,0,0.0253,0.0296,0.0307,0.0351,0.0371,0.0403,0.0427,0.0449,0.047,0.039,0.0405,0.0301,0.0228,0.0195,0.0113,0.006,0.0027,0.0012,0.0009,-0.0025,-0.0045,-0.0073,-0.0081,0.001,0.001,0.001,-0.0093,0,0.0316,0.04,0.041,0.0508,0.0558,0.0545,0.0585,0.059,0.0561,0.0554,0.0435,0.0414,0.029,0.0252,0.0178,0.0081,0.0025,0.0057,-0.007,-0.0074,-0.0095,-0.0083,-0.0039,-0.0126,-0.0097,-0.0097,-0.0098,0,0.0385,0.0437,0.0539,0.0634,0.0658,0.0706,0.0767,0.0797,0.0767,0.0736,0.0657,0.0575,0.0471,0.0371,0.0187,0.0216,0.01,0.0005,-0.0001,-0.0047,-0.0108,-0.0144,-0.0134,-0.0104,-0.0104,-0.0103,-0.0103,0,0.0444,0.0542,0.0633,0.0665,0.0745,0.0794,0.084,0.0849,0.089,0.0855,0.0857,0.0714,0.065,0.048,0.0254,0.0232,0.0065,0.0011,-0.0127,-0.0132,-0.0128,-0.0132,-0.009,-0.009,-0.0089,-0.0089,-0.0089,0,0.0523,0.06,0.0667,0.0721,0.0844,0.0877,0.0985,0.0996,0.1018,0.1086,0.0955,0.0948,0.0681,0.0541,0.0322,0.0084,0.0112,-0.011,-0.0152,-0.0106,-0.0107,-0.011,-0.0111,-0.0093,-0.0092,-0.0091,-0.0091,0,0.0583,0.0616,0.0732,0.0834,0.0874,0.0967,0.1094,0.1169,0.117,0.1246,0.1246,0.113,0.0945,0.0668,0.0398,0.0188,-0.004,-0.0123,-0.0063,-0.0096,-0.0241,-0.0237,-0.0297,-0.0299,-0.03,-0.0301,-0.0302,0,0.0621,0.068,0.0816,0.0894,0.095,0.1077,0.1175,0.1233,0.1318,0.1359,0.141,0.127,0.1176,0.0752,0.0377,0.0004,-0.0042,-0.0188,-0.0229,-0.0223,-0.0258,-0.0252,-0.0247,-0.0212,-0.0212,-0.0212,-0.0212,0,0.0705,0.0743,0.0839,0.0995,0.1118,0.1259,0.1399,0.1478,0.1559,0.1612,0.1651,0.1585,0.1204,0.0823,0.0332,0.0093,-0.0134,-0.0204,-0.0193,-0.0161,-0.0149,-0.0182,-0.0178,-0.0213,-0.0213,-0.0213,-0.0213,-0.0213,0.0767,0.0848,0.0967,0.112,0.1261,0.1425,0.1541,0.1664,0.1793,0.1868,0.1815,0.1718,0.1326,0.0679,0.0263,-0.0159,-0.0147,-0.0299,-0.0295,-0.0292,-0.0259,-0.0249,-0.0328,-0.0328,-0.0329,-0.0329,-0.0329,0,0.0852,0.0943,0.1089,0.1269,0.1423,0.1485,0.1686,0.1776,0.1913,0.197,0.1967,0.1595,0.1186,0.0735,0.01,-0.0277,-0.0289,-0.0384,-0.0326,-0.0321,-0.0318,-0.0284,-0.0361,-0.0363,-0.0364,-0.0365,0,0,0.0903,0.1048,0.1123,0.1372,0.1494,0.1691,0.1799,0.1906,0.1977,0.2,0.1945,0.1843,0.1314,0.0847,0.0342,-0.0024,-0.0081,-0.0079,-0.0008,0.0127,0.0135,-0.0219,-0.0156,0,0,0,0,0]}],[{"header":{"parameterUnit":"m.s-1","parameterCategory":2,"la1":30.2991,"la2":30.254,"lo1":-89.0895,"lo2":-89.0444,"dy":0.0017,"dx":0.0017,"nx":28,"ny":28,"refTime":"2024-05-09T03:00:00:Z","depth":"4","parameterNumber":2,"parameterNumberName":"U-component_of_CURRENTS"},"data":[0,0,0,0,0,0,0,0,0,0,0,0,0,0,0,0,0,0,0,0,0,0,0,0,0,0,0,0,0,0,0,0,0,0,0,0,0,0,0,0,0,0,0,0,0,0,0,0,0,0,0,0,0,0,0,0,0,0,0.1937,0.1937,0,0.1954,0.1954,0.1955,0.2012,0.2013,0.2015,0.2016,0.2098,0.2099,0.21,0,0,0,0,0,0,0,0,0,0,0,0,0,0.1949,0.1948,0.1937,0.1937,0.1937,0.1954,0.1954,0.1955,0.2012,0.2013,0.2015,0.2016,0.2098,0.2099,0.21,0,0,0,0,0,0,0,0,0,0,0,0,0,0.1952,0.1948,0.1937,0.1968,0.1971,0.1954,0.1954,0.1955,0.2011,0.2013,0.2015,0.2017,0.2097,0.2099,0.21,0.2069,0,0,0.2104,0.2105,0,0,0,0,0,0,0,0,0.1952,0.1952,0.1963,0.1966,0.197,0.1983,0.1989,0.1996,0.2011,0.1996,0.2016,0.2018,0.2065,0.2069,0.2066,0.2073,0.2076,0.2105,0.2105,0.2106,0.2106,0,0,0,0,0,0,0,0.1952,0.1951,0.1943,0.1964,0.1967,0.198,0.1983,0.199,0.202,0.1997,0.2001,0.2003,0.2067,0.2064,0.2069,0.2078,0.2105,0.2106,0.2107,0.2107,0.2208,0.221,0,0,0,0,0,0,0.1948,0.1951,0.1943,0.1944,0.1966,0.1978,0.1981,0.1977,0.2018,0.2026,0.2002,0.2006,0.2061,0.2067,0.2072,0.2166,0.2106,0.2107,0.2108,0.2207,0.2209,0.2211,0,0,0,0,0,0,0.1948,0.1947,0.1942,0.1949,0.1949,0.1976,0.197,0.1976,0.2023,0.2021,0.2031,0.2049,0.2063,0.207,0.2128,0.2165,0.2108,0.2109,0.2204,0.2207,0.221,0.2272,0,0,0,0,0,0,0.1948,0.1947,0.1963,0.1948,0.1949,0.1962,0.1969,0.1975,0.2018,0.2025,0.2063,0.207,0.2065,0.2126,0.213,0.2166,0.211,0.2202,0.2206,0.2209,0.2268,0.2277,0.2285,0,0,0,0,0,0.1948,0.1953,0.1964,0.1964,0.1963,0.1963,0.1965,0.199,0.2019,0.2041,0.2079,0.2072,0.2151,0.2129,0.2133,0.217,0.22,0.2205,0.2209,0.2264,0.2275,0.2284,0,0,0,0,0,0,0.1972,0.1958,0.197,0.1974,0.1985,0.1974,0.2001,0.2016,0.206,0.2086,0.2092,0.2101,0.2169,0.2161,0.2137,0.2211,0.2175,0.218,0.2216,0.2226,0.2234,0.2256,0.2112,0,0,0,0,0,0.1982,0.1987,0.1977,0.1991,0.1999,0.2011,0.2024,0.2039,0.2062,0.2086,0.2108,0.2141,0.2177,0.2198,0.222,0.2254,0.2275,0.2282,0.2291,0.2298,0.2319,0.2389,0.2406,0.2224,0.2224,0.2224,0,0,0.1998,0.1992,0.1998,0.1998,0.2013,0.2015,0.2026,0.2056,0.2075,0.2086,0.2142,0.2177,0.2196,0.2243,0.2271,0.2247,0.2359,0.2303,0.2309,0.2327,0.2395,0.2413,0.2429,0.2227,0.2227,0.2226,0,0,0.2011,0.2029,0.2031,0.2032,0.2052,0.2056,0.2076,0.2089,0.2123,0.2169,0.2192,0.2258,0.229,0.2316,0.2332,0.24,0.2407,0.2407,0.2461,0.2528,0.2544,0.2558,0.2599,0.2617,0.2404,0.2404,0.2404,0,0.2043,0.2025,0.2037,0.2031,0.2036,0.2079,0.2081,0.2112,0.2147,0.2191,0.2203,0.2309,0.2325,0.2398,0.2427,0.242,0.2456,0.2418,0.254,0.2554,0.2568,0.2607,0.2625,0.2407,0.2407,0.2407,0.2406,0,0.2021,0.2032,0.2039,0.2042,0.2055,0.207,0.2096,0.2144,0.22,0.2239,0.2348,0.2384,0.2455,0.2465,0.2471,0.2574,0.2568,0.2548,0.2514,0.259,0.2626,0.2644,0.2413,0.2411,0.241,0.2409,0,0,0.2031,0.2027,0.2033,0.2039,0.206,0.2066,0.2119,0.2179,0.2254,0.2318,0.2409,0.2488,0.2551,0.2575,0.2597,0.2653,0.2772,0.2652,0.2654,0.2693,0.2923,0.2749,0.2751,0.2784,0.2788,0.2791,0.2907,0,0.2023,0.201,0.2007,0.2024,0.2027,0.207,0.2111,0.2182,0.228,0.2382,0.2469,0.2574,0.2579,0.2643,0.2704,0.2765,0.2826,0.2742,0.2845,0.2848,0.2684,0.2768,0.2803,0.292,0.2924,0.2927,0.293,0,0.1985,0.199,0.1992,0.202,0.2028,0.2056,0.2159,0.2195,0.235,0.2444,0.258,0.2661,0.2784,0.2768,0.2922,0.2877,0.2921,0.2949,0.2954,0.2785,0.2707,0.2831,0.2962,0.2959,0.2957,0.2955,0.2953,0,0.1953,0.1975,0.1983,0.1984,0.2025,0.2068,0.2108,0.2239,0.232,0.2512,0.2631,0.2768,0.2873,0.2953,0.3039,0.3003,0.3188,0.313,0.3011,0.2998,0.3092,0.3075,0.3244,0.3244,0.3244,0.3244,0.3243,0,0.19,0.1915,0.1989,0.198,0.2038,0.2064,0.2164,0.2247,0.2405,0.2521,0.2677,0.2801,0.2937,0.3053,0.3089,0.3114,0.3237,0.3045,0.3027,0.3112,0.3097,0.3104,0.3086,0.3248,0.3247,0.3246,0.3246,0,0.1831,0.1871,0.1895,0.1972,0.2015,0.2052,0.2185,0.2253,0.2432,0.2592,0.2666,0.2878,0.3018,0.3126,0.3255,0.3172,0.3208,0.3187,0.3289,0.3271,0.2955,0.2939,0.3042,0.3037,0.3033,0.3029,0.3026,0,0.1777,0.1785,0.1889,0.192,0.1963,0.2048,0.21,0.2261,0.2345,0.2617,0.2673,0.2896,0.3015,0.3059,0.3168,0.3218,0.3186,0.3165,0.3038,0.2967,0.2941,0.2931,0.2921,0.302,0.3019,0.3017,0.3016,0,0.1685,0.1748,0.1766,0.1842,0.1912,0.1971,0.2069,0.2137,0.2313,0.2521,0.2645,0.2734,0.2882,0.2955,0.3029,0.3053,0.3146,0.3119,0.3126,0.3007,0.2941,0.2917,0.2912,0.3002,0.3004,0.3005,0.3006,0,0.1634,0.1635,0.1684,0.1732,0.1812,0.1843,0.1921,0.2008,0.2116,0.2411,0.2448,0.2676,0.2856,0.2875,0.2943,0.2955,0.2895,0.277,0.2794,0.2811,0.268,0.256,0.251,0,0,0,0,0,0.1573,0.1543,0.1565,0.1597,0.1667,0.1728,0.1861,0.1945,0.2159,0.2187,0.2313,0.2441,0.2554,0.2664,0.2631,0.2835,0.2899,0.2781,0.2763,0.2921,0.2938,0.2805,0,0,0,0,0,0,0.1524,0.1532,0.1514,0.1474,0.1484,0.1552,0.1638,0.1786,0.1808,0.2041,0.2116,0.2292,0.2436,0.2561,0.2589,0.2621,0.2557,0.2922,0.2915,0.2912,0.2927,0.294,0.2809,0,0,0,0,0]},{"header":{"parameterUnit":"m.s-1","parameterCategory":2,"la1":30.2991,"la2":30.254,"lo1":-89.0895,"lo2":-89.0444,"dy":0.0017,"dx":0.0017,"nx":28,"ny":28,"refTime":"2024-05-09T03:00:00:Z","depth":"4","parameterNumber":3,"parameterNumberName":"V-component_of_CURRENTS"},"data":[0,0,0,0,0,0,0,0,0,0,0,0,0,0,0,0,0,0,0,0,0,0,0,0,0,0,0,0,0,0,0,0,0,0,0,0,0,0,0,0,0,0,0,0,0,0,0,0,0,0,0,0,0,0,0,0,0,0,0.0161,0.0161,0,0.0162,0.0161,0.0161,0.014,0.014,0.014,0.0139,0.0096,0.0095,0.0095,0,0,0,0,0,0,0,0,0,0,0,0,0,0.0136,0.0136,0.0161,0.0161,0.0162,0.0162,0.0161,0.0161,0.0141,0.014,0.014,0.0139,0.0096,0.0095,0.0095,0,0,0,0,0,0,0,0,0,0,0,0,0,0.0141,0.0137,0.0161,0.0152,0.0152,0.0162,0.0161,0.0161,0.0141,0.014,0.0139,0.0139,0.0097,0.0096,0.0094,0.0099,0,0,0.0091,0.009,0,0,0,0,0,0,0,0,0.0141,0.0142,0.0154,0.0153,0.0152,0.0152,0.0137,0.0139,0.0141,0.0143,0.0139,0.0139,0.0112,0.011,0.0109,0.0097,0.0096,0.0091,0.009,0.009,0.0089,0,0,0,0,0,0,0,0.0141,0.0142,0.016,0.0154,0.0153,0.0146,0.0146,0.0137,0.0129,0.0143,0.0142,0.0145,0.0111,0.0111,0.0108,0.0095,0.0091,0.009,0.0089,0.0089,0.0086,0.0087,0,0,0,0,0,0,0.0145,0.0142,0.016,0.016,0.0147,0.0147,0.0147,0.0151,0.013,0.0127,0.0145,0.0144,0.0113,0.011,0.0107,0.013,0.009,0.0088,0.0088,0.0086,0.0087,0.0087,0,0,0,0,0,0,0.0144,0.0147,0.016,0.0152,0.0153,0.0149,0.0153,0.0152,0.0154,0.0132,0.0128,0.0149,0.0112,0.0108,0.0105,0.0128,0.0088,0.0087,0.0085,0.0086,0.0087,0.0165,0,0,0,0,0,0,0.0144,0.0146,0.0151,0.0152,0.0154,0.0174,0.0154,0.0152,0.0157,0.0155,0.0135,0.013,0.0112,0.0107,0.0104,0.0125,0.0086,0.0084,0.0085,0.0087,0.0162,0.0169,0.0175,0,0,0,0,0,0.0143,0.0158,0.0151,0.0154,0.016,0.0175,0.0175,0.0168,0.0158,0.0166,0.0151,0.0131,0.0112,0.0107,0.0103,0.0125,0.0084,0.0085,0.0086,0.0159,0.0167,0.0175,0,0,0,0,0,0,0.015,0.0157,0.015,0.0166,0.0172,0.0172,0.0183,0.0175,0.017,0.0167,0.014,0.0135,0.0141,0.0119,0.0114,0.0126,0.0094,0.0095,0.0151,0.0158,0.0164,0.017,0.0085,0,0,0,0,0,0.0154,0.0167,0.017,0.0183,0.0189,0.0185,0.019,0.0187,0.0183,0.0181,0.0169,0.0153,0.0145,0.014,0.013,0.0137,0.0088,0.0147,0.0153,0.0159,0.016,0.0102,0.0104,0.0092,0.0092,0.0092,0,0,0.016,0.0167,0.0173,0.0186,0.019,0.0214,0.0187,0.0202,0.0223,0.0177,0.02,0.0177,0.0151,0.0161,0.0162,0.0146,0.0136,0.0161,0.0166,0.0164,0.0104,0.0105,0.0106,0.0093,0.0093,0.0092,0,0,0.019,0.0188,0.0211,0.0222,0.0235,0.0238,0.0245,0.0251,0.0253,0.0268,0.024,0.0226,0.0223,0.0205,0.0195,0.0228,0.0173,0.023,0.0268,0.0213,0.0214,0.0213,0.0152,0.0145,0.0233,0.0233,0.0233,0,0.0196,0.0227,0.022,0.025,0.027,0.0253,0.029,0.0292,0.0297,0.0303,0.0285,0.0265,0.0242,0.0243,0.0256,0.0243,0.0199,0.0245,0.0222,0.022,0.0218,0.0155,0.0147,0.0237,0.0236,0.0236,0.0236,0,0.0245,0.0272,0.0291,0.0324,0.0343,0.0371,0.0379,0.0392,0.0389,0.0387,0.0386,0.0344,0.033,0.0322,0.0302,0.0288,0.0257,0.0237,0.0203,0.0224,0.0156,0.0146,0.0243,0.0241,0.024,0.0239,0,0,0.0262,0.0314,0.0324,0.0357,0.0387,0.0413,0.0446,0.0473,0.0498,0.0477,0.049,0.0464,0.0429,0.0414,0.0376,0.0328,0.0277,0.0286,0.0281,0.0226,0.0148,0.0133,0.012,0.0254,0.0253,0.0252,0.0105,0,0.0306,0.0379,0.0393,0.0469,0.051,0.0514,0.055,0.0567,0.0571,0.0578,0.0517,0.0517,0.0469,0.046,0.0404,0.0311,0.0255,0.0318,0.0134,0.0128,0.0114,0.011,0.0248,0.0097,0.0095,0.0093,0.0092,0,0.0354,0.04,0.048,0.0551,0.0569,0.061,0.0668,0.0699,0.0696,0.069,0.0661,0.0613,0.0547,0.0497,0.0336,0.0379,0.0274,0.019,0.0182,0.0133,0.0095,0.007,0.0073,0.0074,0.0075,0.0077,0.0078,0,0.0384,0.0465,0.0535,0.056,0.0629,0.0669,0.0709,0.0737,0.0779,0.0762,0.0767,0.0676,0.0626,0.0487,0.0321,0.0327,0.0125,0.0108,-0.0011,-0.0014,0.0008,0.001,-0.0014,-0.0014,-0.0014,-0.0013,-0.0013,0,0.043,0.0489,0.0558,0.06,0.069,0.072,0.0812,0.0829,0.086,0.0904,0.0829,0.0812,0.0621,0.0489,0.0333,0.0129,0.0129,-0.0011,-0.0052,0.0045,0.0052,0.0,0.0004,-0.0019,-0.0017,-0.0016,-0.0015,0,0.0458,0.0498,0.0589,0.0675,0.071,0.078,0.0894,0.0955,0.0967,0.1012,0.1007,0.0903,0.0727,0.0525,0.0281,0.0148,-0.0045,-0.0118,-0.0005,-0.0037,-0.0155,-0.0145,-0.0268,-0.027,-0.0271,-0.0273,-0.0274,0,0.0479,0.0527,0.0647,0.0706,0.0754,0.0862,0.094,0.1004,0.1066,0.1066,0.1077,0.0932,0.0833,0.0477,0.0258,-0.0057,-0.0097,-0.0205,-0.0176,-0.0152,-0.0181,-0.0169,-0.0158,-0.0276,-0.0276,-0.0277,-0.0277,0,0.052,0.0563,0.0637,0.0759,0.0857,0.0976,0.1083,0.1131,0.1189,0.1196,0.1132,0.0958,0.0748,0.0476,0.0227,0.0007,-0.0137,-0.0221,-0.022,-0.0193,-0.0163,-0.0187,-0.0175,-0.0282,-0.0282,-0.0281,-0.0281,0,0.055,0.0606,0.07,0.0809,0.0933,0.1049,0.1109,0.117,0.1228,0.1216,0.1186,0.0972,0.0846,0.0507,0.0284,0.0059,0.0002,-0.0068,-0.0076,-0.0073,0.003,0.01,0.0022,0,0,0,0,0,0.0575,0.0639,0.0742,0.0865,0.0987,0.1062,0.1186,0.1232,0.1274,0.1241,0.122,0.1029,0.0691,0.0547,0.0318,0.0243,-0.0045,-0.0034,-0.0132,-0.0311,-0.0305,-0.0218,0,0,0,0,0,0,0.0595,0.0687,0.0742,0.0891,0.0975,0.1121,0.1203,0.1233,0.1215,0.1211,0.1038,0.0958,0.0632,0.0815,0.0306,0.0239,0.0143,-0.0187,-0.0193,-0.0314,-0.0309,-0.0304,-0.0212,0,0,0,0,0]}]]